| time (UTC) | temp C | wind direction | speed KPH | gust KPH | rain 1hr cm | rain 24hr cm | rain mn cm | humidity % | barometer mb |
| 20260507124501 | 9 | 154 | 3.2 | 6.4 | 0.00 | 0.00 | 0.00 | 81 | 1020.7 |
| 20260507123001 | 7 | 282 | 0.0 | 0.0 | 0.00 | 0.00 | 0.00 | 88 | 1020.7 |
| 20260507121501 | 6 | 212 | 3.2 | 6.4 | 0.00 | 0.00 | 0.00 | 94 | 1020.7 |
| 20260507120001 | 5 | 129 | 3.2 | 6.4 | 0.00 | 0.00 | 0.00 | 95 | |
| 20260507114501 | 5 | 313 | 3.2 | 3.2 | 0.00 | 0.00 | 0.00 | 95 | |
| 20260507113001 | 4 | 233 | 3.2 | 6.4 | 0.00 | 0.00 | 0.00 | 94 | |
| 20260507111502 | 5 | 314 | 6.4 | 12.9 | 0.00 | 0.00 | 0.00 | 93 | |
| 20260507110001 | 5 | 102 | 3.2 | 3.2 | 0.00 | 0.00 | 0.00 | 93 | |
| 20260507104501 | 5 | 204 | 3.2 | 6.4 | 0.00 | 0.00 | 0.00 | 93 | |
| 20260507103001 | 5 | 105 | 0.0 | 6.4 | 0.00 | 0.00 | 0.00 | 92 | |
| 20260507101501 | 5 | 1 | 3.2 | 6.4 | 0.00 | 0.00 | 0.00 | 92 | |
| 20260507100002 | 5 | 244 | 3.2 | 6.4 | 0.00 | 0.00 | 0.00 | 92 | |
| 20260507094502 | 5 | 86 | 0.0 | 3.2 | 0.00 | 0.00 | 0.00 | 93 | |
| 20260507093001 | 5 | 218 | 0.0 | 3.2 | 0.00 | 0.00 | 0.00 | 92 | |
| 20260507091501 | 5 | 338 | 3.2 | 3.2 | 0.00 | 0.00 | 0.00 | 92 | |
| 20260507084501 | 5 | 315 | 0.0 | 3.2 | 0.00 | 0.00 | 0.00 | 91 | |
| 20260507083001 | 5 | 230 | 0.0 | 0.0 | 0.00 | 0.00 | 0.00 | 90 | |
| 20260507081501 | 5 | 166 | 0.0 | 0.0 | 0.00 | 0.00 | 0.00 | 89 | 1020.7 |
| 20260507080001 | 5 | 98 | 3.2 | 3.2 | 0.00 | 0.00 | 0.00 | 89 | 1020.7 |
| 20260507074501 | 6 | 66 | 0.0 | 3.2 | 0.00 | 0.00 | 0.00 | 87 | |
| 20260507073001 | 6 | 225 | 0.0 | 0.0 | 0.00 | 0.00 | 0.00 | 87 | |
| 20260507071501 | 6 | 110 | 0.0 | 0.0 | 0.00 | 0.00 | 0.00 | 85 | |
| 20260507070001 | 6 | 307 | 0.0 | 0.0 | 0.00 | 0.00 | 0.00 | 82 | |
| 20260507064501 | 7 | 150 | 0.0 | 0.0 | 0.00 | 0.00 | 0.00 | 81 | |
| 20260507063001 | 8 | 150 | 0.0 | 0.0 | 0.00 | 0.00 | 0.00 | 78 | |
| 20260507061502 | 8 | 62 | 0.0 | 0.0 | 0.00 | 0.00 | 0.00 | 75 | |
| 20260507060001 | 10 | 76 | 0.0 | 0.0 | 0.00 | 0.00 | 0.00 | 67 | |
| 20260507054501 | 10 | 45 | 0.0 | 0.0 | 0.00 | 0.00 | 0.00 | 61 | |
| 20260507053001 | 10 | 339 | 6.4 | 0.0 | 0.00 | 0.00 | 0.00 | 61 | |
| 20260507051501 | 8 | 345 | 0.0 | 0.0 | 0.00 | 0.00 | 0.00 | 66 | |
| 20260507050001 | 8 | 224 | 0.0 | 0.0 | 0.00 | 0.00 | 0.00 | 81 | |
| 20260507044501 | 8 | 186 | 0.0 | 0.0 | 0.00 | 0.00 | 0.00 | 80 | |
| 20260507043001 | 8 | 245 | 0.0 | 0.0 | 0.00 | 0.00 | 0.00 | 77 | |
| 20260507041501 | 8 | 142 | 0.0 | 0.0 | 0.00 | 0.00 | 0.00 | 77 | |
| 20260507040001 | 8 | 141 | 0.0 | 0.0 | 0.00 | 0.00 | 0.00 | 78 | |
| 20260507034501 | 8 | 37 | 0.0 | 0.0 | 0.00 | 0.00 | 0.00 | 77 | |
| 20260507031501 | 10 | 323 | 0.0 | 0.0 | 0.00 | 0.00 | 0.00 | 73 | |
| 20260507030001 | 10 | 130 | 0.0 | 0.0 | 0.00 | 0.00 | 0.00 | 68 | 1018.6 |
| 20260507024501 | 10 | 25 | 0.0 | 0.0 | 0.00 | 0.00 | 0.00 | 66 | 1018.6 |
| 20260507023001 | 11 | 154 | 0.0 | 0.0 | 0.00 | 0.00 | 0.00 | 64 | 1018.6 |
| 20260507021501 | 11 | 154 | 0.0 | 0.0 | 0.00 | 0.00 | 0.00 | 62 | 1018.6 |
| 20260507020001 | 12 | 142 | 0.0 | 0.0 | 0.00 | 0.00 | 0.00 | 58 | 1018.6 |
| 20260507014501 | 12 | 124 | 0.0 | 0.0 | 0.00 | 0.00 | 0.00 | 56 | 1018.6 |
| 20260507013001 | 13 | 15 | 0.0 | 0.0 | 0.00 | 0.00 | 0.00 | 51 | 1018.6 |
| 20260507011501 | 14 | 217 | 0.0 | 3.2 | 0.00 | 0.00 | 0.00 | 48 | 1018.6 |
| 20260507010001 | 15 | 66 | 0.0 | 0.0 | 0.00 | 0.00 | 0.00 | 47 | 1017.6 |
| 20260507004501 | 15 | 73 | 0.0 | 3.2 | 0.00 | 0.00 | 0.00 | 45 | 1017.6 |
| 20260507003001 | 16 | 335 | 6.4 | 6.4 | 0.00 | 0.00 | 0.00 | 44 | 1017.6 |
| 20260507001502 | 16 | 345 | 0.0 | 6.4 | 0.00 | 0.00 | 0.00 | 41 | 1017.6 |
| 20260507000002 | 16 | 321 | 9.7 | 12.9 | 0.00 | 0.00 | 0.00 | 39 | 1017.6 |
| 20260506234501 | 16 | 347 | 6.4 | 6.4 | 0.00 | 0.00 | 0.00 | 37 | 1017.6 |
| 20260506233001 | 17 | 51 | 9.7 | 9.7 | 0.00 | 0.00 | 0.00 | 40 | 1017.6 |
| 20260506231501 | 17 | 348 | 0.0 | 17.7 | 0.00 | 0.00 | 0.00 | 40 | 1016.6 |
| 20260506230001 | 17 | 47 | 6.4 | 12.9 | 0.00 | 0.00 | 0.00 | 41 | 1016.6 |
| 20260506224501 | 17 | 303 | 3.2 | 3.2 | 0.00 | 0.00 | 0.00 | 38 | 1016.6 |
| 20260506223001 | 17 | 344 | 3.2 | 6.4 | 0.00 | 0.00 | 0.00 | 39 | 1016.6 |
| 20260506221501 | 17 | 108 | 3.2 | 6.4 | 0.00 | 0.00 | 0.00 | 39 | 1016.6 |
| 20260506220001 | 17 | 315 | 3.2 | 3.2 | 0.00 | 0.00 | 0.00 | 38 | 1016.6 |
| 20260506214501 | 17 | 93 | 3.2 | 6.4 | 0.00 | 0.00 | 0.00 | 39 | 1016.6 |
| 20260506213001 | 17 | 56 | 3.2 | 3.2 | 0.00 | 0.00 | 0.00 | 40 | 1016.6 |
| 20260506211501 | 17 | 84 | 12.9 | 12.9 | 0.00 | 0.00 | 0.00 | 40 | 1016.6 |
| 20260506210002 | 17 | 39 | 3.2 | 3.2 | 0.00 | 0.00 | 0.00 | 42 | 1016.6 |
| 20260506204501 | 18 | 300 | 6.4 | 12.9 | 0.00 | 0.00 | 0.00 | 39 | 1017.6 |
| 20260506203001 | 18 | 250 | 3.2 | 6.4 | 0.00 | 0.00 | 0.00 | 40 | 1017.6 |
| 20260506201501 | 18 | 296 | 9.7 | 12.9 | 0.00 | 0.00 | 0.00 | 40 | 1017.6 |
| 20260506200001 | 18 | 7 | 20.9 | 3.2 | 0.00 | 0.00 | 0.00 | 40 | 1017.6 |
| 20260506194501 | 18 | 42 | 6.4 | 12.9 | 0.00 | 0.00 | 0.00 | 41 | 1017.6 |
| 20260506193002 | 17 | 102 | 20.9 | 6.4 | 0.00 | 0.00 | 0.00 | 43 | 1017.6 |
| 20260506191501 | 17 | 57 | 6.4 | 6.4 | 0.00 | 0.00 | 0.00 | 41 | 1017.6 |
| 20260506190001 | 17 | 163 | 20.9 | 12.9 | 0.00 | 0.00 | 0.00 | 42 | 1017.6 |
| 20260506184501 | 17 | 76 | 12.9 | 24.1 | 0.00 | 0.00 | 0.00 | 39 | 1018.6 |
| 20260506183001 | 17 | 81 | 6.4 | 6.4 | 0.00 | 0.00 | 0.00 | 41 | 1018.6 |
| 20260506181501 | 16 | 296 | 9.7 | 17.7 | 0.00 | 0.00 | 0.00 | 42 | 1018.6 |
| 20260506180001 | 16 | 66 | 12.9 | 24.1 | 0.00 | 0.00 | 0.00 | 44 | 1018.6 |
| 20260506174501 | 16 | 174 | 3.2 | 6.4 | 0.00 | 0.00 | 0.00 | 45 | 1018.6 |
| 20260506173001 | 16 | 177 | 3.2 | 6.4 | 0.00 | 0.00 | 0.00 | 47 | 1018.6 |
| 20260506171501 | 16 | 91 | 6.4 | 6.4 | 0.00 | 0.00 | 0.00 | 47 | |
| 20260506170001 | 15 | 80 | 12.9 | 12.9 | 0.00 | 0.00 | 0.00 | 48 | |
| 20260506164502 | 15 | 130 | 3.2 | 6.4 | 0.00 | 0.00 | 0.00 | 48 | |
| 20260506163001 | 15 | 300 | 12.9 | 12.9 | 0.00 | 0.00 | 0.00 | 52 | |
| 20260506161501 | 15 | 62 | 6.4 | 6.4 | 0.00 | 0.00 | 0.00 | 50 | |
| 20260506154501 | 15 | 123 | 3.2 | 6.4 | 0.00 | 0.00 | 0.00 | 53 | 1018.6 |
| 20260506153001 | 13 | 78 | 6.4 | 20.9 | 0.00 | 0.00 | 0.00 | 57 | 1018.6 |
| 20260506151501 | 13 | 21 | 0.0 | 3.2 | 0.00 | 0.00 | 0.00 | 58 | 1018.6 |
| 20260506150002 | 13 | 76 | 6.4 | 12.9 | 0.00 | 0.00 | 0.00 | 60 | 1018.6 |
| 20260506144501 | 12 | 85 | 17.7 | 20.9 | 0.00 | 0.00 | 0.00 | 62 | 1017.6 |
| 20260506143001 | 12 | 100 | 6.4 | 20.9 | 0.00 | 0.00 | 0.00 | 64 | 1017.6 |
| 20260506141501 | 11 | 125 | 3.2 | 3.2 | 0.00 | 0.00 | 0.00 | 68 | 1017.6 |
| 20260506140001 | 10 | 136 | 6.4 | 6.4 | 0.00 | 0.00 | 0.00 | 69 | 1017.6 |
| 20260506134501 | 10 | 77 | 12.9 | 35.4 | 0.00 | 0.00 | 0.00 | 70 | 1018.6 |
| 20260506133002 | 10 | 340 | 0.0 | 9.7 | 0.00 | 0.00 | 0.00 | 72 | 1018.6 |
| 20260506131502 | 10 | 124 | 0.0 | 12.9 | 0.00 | 0.00 | 0.00 | 72 | 1017.6 |
| 20260506130001 | 9 | 71 | 9.7 | 6.4 | 0.00 | 0.00 | 0.00 | 74 | 1017.6 |